Location: Lake Sonoma
(38.7200°N, 123.0564°W)
Time: 14:24:21
(UTC-07:00)

Amateur Radio Satellites - All Passes

Search period start: 24 April 2014 13:54
Search period end: 25 April 2014 13:54
Location: Lake Sonoma, 38.7200°N, 123.0564°W

Satellite Date Start Highest point End Downlink Frequencies (MHz)
Time Altitude Azimuth
Gurwin Techsat 1B 24 Apr 13:59:44 14:02:18 14° 61° (ENE) 14:04:52 435.225 FM
KITSAT 1 24 Apr 14:06:45 14:08:45 11° 262° (W) 14:10:46 435.175 FM
SO-50 24 Apr 14:19:46 14:24:04 50° 117° (ESE) 14:28:26 436.795 FM
Uribyol 2 24 Apr 14:29:10 14:34:20 86° 75° (ENE) 14:39:31 436.500 FM
AO-Echo 24 Apr 14:31:42 14:36:52 70° 75° (ENE) 14:41:54 ?
AO-7 24 Apr 14:37:55 14:41:44 14° 48° (NE) 14:45:32 29.400 - 29.500 MHz
TMSAT-1 24 Apr 14:42:24 14:46:35 24° 66° (ENE) 14:50:46 436.925 FM
Uosat F 24 Apr 14:58:58 15:00:44 12° 60° (ENE) 15:02:30 435.120 FM
ISS 24 Apr 15:05:01 15:07:40 21° 334° (NNW) 15:10:19 145.800 FM
AO-27 24 Apr 15:12:52 15:17:39 37° 262° (W) 15:22:27 436.795 MHz FM
Oscar 19 24 Apr 15:15:32 15:19:11 19° 267° (W) 15:22:52 437.125 CW, 437.150 USB
ITAMSAT 1 24 Apr 15:22:21 15:26:54 31° 263° (W) 15:31:29 435.822 SSB
Oscar 16 24 Apr 15:25:53 15:28:38 15° 269° (W) 15:31:24 437.025 USB, Beacon 2401.1428
Gurwin Techsat 1B 24 Apr 15:36:17 15:41:35 76° 258° (WSW) 15:46:55 435.225 FM
RS-15 24 Apr 15:39:56 15:50:57 81° 58° (ENE) 16:02:16 29.354 - 29.394 USB, Beacon 29.352 USB
JAS-1B 24 Apr 15:46:17 15:53:50 57° 72° (ENE) 16:00:12 435.800 - 435.900 CW/SSB
SO-50 24 Apr 16:01:41 16:04:55 19° 314° (NW) 16:08:11 436.795 FM
OPAL 24 Apr 16:07:51 16:13:07 80° 105° (ESE) 16:18:19 ?
UOSAT-12 24 Apr 16:11:10 16:15:19 37° 114° (ESE) 16:19:34 437.025 FM, 437.400 FM
AO-Echo 24 Apr 16:13:48 16:16:02 13° 269° (W) 16:18:15 ?
TMSAT-1 24 Apr 16:21:19 16:26:15 40° 262° (W) 16:31:13 436.925 FM
AO-7 24 Apr 16:24:48 16:32:57 66° 68° (ENE) 16:41:08 29.400 - 29.500 MHz
Uosat F 24 Apr 16:33:47 16:38:49 81° 257° (WSW) 16:43:52 435.120 FM
JAS-1B 24 Apr 17:38:32 17:44:35 24° 264° (W) 17:49:58 435.800 - 435.900 CW/SSB
OPAL 24 Apr 17:48:53 17:51:17 13° 302° (WNW) 17:53:41 ?
UOSAT-12 24 Apr 17:51:45 17:55:33 25° 312° (NW) 17:59:26 437.025 FM, 437.400 FM
RS-15 24 Apr 17:53:55 18:02:03 25° 258° (WSW) 18:10:24 29.354 - 29.394 USB, Beacon 29.352 USB
JAS-2 24 Apr 18:10:10 18:13:27 16° 64° (ENE) 18:16:38 435.800 - 435.900 CW/SSB, 435.910 FM
AO-7 24 Apr 18:19:44 18:26:14 25° 265° (W) 18:32:48 29.400 - 29.500 MHz
ISS 24 Apr 18:21:55 18:23:22 12° 15° (NNE) 18:24:48 145.800 FM
Hamsat 24 Apr 18:49:24 18:53:36 75° 258° (WSW) 18:57:52 145.90 MHz
STRAND 1 24 Apr 18:56:19 19:00:00 20° 94° (E) 19:03:40 ?
Saudisat 1A 24 Apr 18:59:37 19:04:01 66° 57° (ENE) 19:08:21 436.775 MHz
SO-67 24 Apr 19:32:08 19:35:33 56° 76° (ENE) 19:38:59 435.3500 MHz FM
JAS-2 24 Apr 19:52:34 19:58:10 59° 259° (WSW) 20:03:22 435.800 - 435.900 CW/SSB, 435.910 FM
ISS 24 Apr 19:57:33 20:00:46 43° 34° (NNE) 20:03:59 145.800 FM
HO-68 24 Apr 20:20:11 20:26:02 28° 61° (ENE) 20:31:53 435.675 MHz FM
STRAND 1 24 Apr 20:34:33 20:39:23 45° 289° (WNW) 20:44:12 ?
Saudisat 1A 24 Apr 20:41:38 20:43:01 11° 253° (WSW) 20:44:23 436.775 MHz
MaSat-1 24 Apr 21:08:02 21:10:39 35° 296° (WNW) 21:13:03 437.345 MHz
ISS 24 Apr 21:34:50 21:37:16 19° 229° (SW) 21:39:41 145.800 FM
HO-68 24 Apr 22:06:21 22:13:18 55° 259° (WSW) 22:20:19 435.675 MHz FM
Sapphire 24 Apr 22:17:39 22:17:51 10° 101° (E) 22:18:03 437.095 MHz 1200 baud AX-25 AFSK
Oscar 11 24 Apr 22:19:50 22:24:09 81° 258° (WSW) 22:28:29 145.825 FM, Beacon 2401.500 USB
FUNcube-1 24 Apr 22:28:04 22:31:52 36° 72° (ENE) 22:35:41 145.950 - 145.970 MHz USB
SO-50 24 Apr 22:52:39 22:56:53 33° 51° (NE) 23:01:08 436.795 FM
PCSat 24 Apr 22:57:04 23:01:39 29° 108° (ESE) 23:06:16 145.825 MHz
Sapphire 24 Apr 23:55:00 00:00:24 89° 117° (ESE) 00:05:52 437.095 MHz 1200 baud AX-25 AFSK
FUNcube-1 25 Apr 00:05:45 00:08:25 16° 267° (W) 00:11:05 145.950 - 145.970 MHz USB
SO-50 25 Apr 00:33:23 00:37:20 27° 247° (WSW) 00:41:19 436.795 FM
PCSat 25 Apr 00:39:55 00:44:54 37° 305° (NW) 00:49:56 145.825 MHz
KITSAT 1 25 Apr 00:41:07 00:46:26 19° 102° (ESE) 00:51:45 435.175 FM
UOSAT-12 25 Apr 00:42:02 00:45:58 25° 48° (NE) 00:49:52 437.025 FM, 437.400 FM
Sapphire 25 Apr 01:41:31 01:44:35 15° 316° (NW) 01:47:40 437.095 MHz 1200 baud AX-25 AFSK
OPAL 25 Apr 01:45:33 01:48:22 15° 59° (ENE) 01:51:13 ?
Oscar 19 25 Apr 01:48:40 01:52:14 18° 93° (E) 01:55:46 437.125 CW, 437.150 USB
Oscar 16 25 Apr 01:57:33 02:01:45 24° 95° (E) 02:05:55 437.025 USB, Beacon 2401.1428
ITAMSAT 1 25 Apr 01:59:40 02:00:57 11° 90° (E) 02:02:14 435.822 SSB
UOSAT-12 25 Apr 02:21:51 02:26:14 39° 245° (WSW) 02:30:33 437.025 FM, 437.400 FM
KITSAT 1 25 Apr 02:32:43 02:40:50 83° 299° (WNW) 02:49:01 435.175 FM
AO-Echo 25 Apr 02:41:16 02:44:59 23° 95° (E) 02:48:39 ?
Uribyol 2 25 Apr 02:43:36 02:48:18 34° 97° (E) 02:52:59 436.500 FM
OPAL 25 Apr 03:21:38 03:26:39 67° 256° (WSW) 03:31:46 ?
AO-27 25 Apr 03:26:44 03:31:56 87° 104° (ESE) 03:37:08 436.795 MHz FM
Oscar 19 25 Apr 03:26:48 03:31:49 50° 288° (WNW) 03:36:48 437.125 CW, 437.150 USB
JAS-1B 25 Apr 03:35:13 03:36:48 11° 91° (E) 03:38:24 435.800 - 435.900 CW/SSB
ITAMSAT 1 25 Apr 03:35:48 03:41:00 79° 285° (WNW) 03:46:10 435.822 SSB
Oscar 16 25 Apr 03:36:24 03:41:10 38° 290° (WNW) 03:45:56 437.025 USB, Beacon 2401.1428
Gurwin Techsat 1B 25 Apr 03:54:00 03:59:09 49° 99° (E) 04:04:15 435.225 FM
AO-Echo 25 Apr 04:19:36 04:23:49 33° 290° (WNW) 04:27:59 ?
Uribyol 2 25 Apr 04:23:18 04:27:38 27° 293° (WNW) 04:31:57 436.500 FM
AO-7 25 Apr 04:29:03 04:35:14 22° 94° (E) 04:41:22 29.400 - 29.500 MHz
KITSAT 1 25 Apr 04:31:35 04:37:31 22° 322° (NW) 04:43:29 435.175 FM
TMSAT-1 25 Apr 04:38:04 04:43:24 90° 285° (WNW) 04:48:42 436.925 FM
Uosat F 25 Apr 04:43:13 04:47:45 34° 98° (E) 04:52:16 435.120 FM
AO-27 25 Apr 05:09:01 05:10:42 12° 300° (WNW) 05:12:22 436.795 MHz FM
JAS-1B 25 Apr 05:22:19 05:28:02 81° 285° (WNW) 05:34:16 435.800 - 435.900 CW/SSB
MaSat-1 25 Apr 05:31:41 05:34:08 20° 61° (ENE) 05:36:54 437.345 MHz
Gurwin Techsat 1B 25 Apr 05:34:54 05:38:44 21° 296° (WNW) 05:42:34 435.225 FM
RS-15 25 Apr 06:00:59 06:12:05 61° 113° (ESE) 06:22:48 29.354 - 29.394 USB, Beacon 29.352 USB
STRAND 1 25 Apr 06:11:00 06:15:11 26° 67° (ENE) 06:19:21 ?
AO-7 25 Apr 06:20:21 06:28:39 74° 291° (WNW) 06:36:56 29.400 - 29.500 MHz
TMSAT-1 25 Apr 06:20:55 06:22:31 11° 300° (WNW) 06:24:06 436.925 FM
PANSAT 25 Apr 06:21:02 06:23:02 14° 168° (SSE) 06:25:02 not established
Uosat F 25 Apr 06:22:17 06:26:22 26° 293° (WNW) 06:30:26 435.120 FM
Hamsat 25 Apr 06:37:17 06:40:40 22° 94° (E) 06:44:03 145.90 MHz
JAS-2 25 Apr 07:02:49 07:06:30 17° 94° (E) 07:10:25 435.800 - 435.900 CW/SSB, 435.910 FM
MaSat-1 25 Apr 07:09:49 07:12:23 21° 250° (WSW) 07:15:19 437.345 MHz
PCSat 25 Apr 07:46:14 07:50:13 20° 48° (NE) 07:54:11 145.825 MHz
STRAND 1 25 Apr 07:49:33 07:54:12 35° 262° (W) 07:58:51 ?
PANSAT 25 Apr 07:59:56 08:02:37 18° 181° (S) 08:05:17 not established
Hamsat 25 Apr 08:12:49 08:16:39 31° 289° (WNW) 08:20:29 145.90 MHz
RS-15 25 Apr 08:14:32 08:24:54 41° 316° (NW) 08:35:05 29.354 - 29.394 USB, Beacon 29.352 USB
AO-7 25 Apr 08:15:30 08:20:02 16° 310° (NW) 08:24:34 29.400 - 29.500 MHz
SO-67 25 Apr 08:30:51 08:34:22 88° 100° (E) 08:37:52 435.3500 MHz FM
KITSAT 1 25 Apr 08:34:23 08:37:12 12° 24° (NNE) 08:40:00 435.175 FM
Sapphire 25 Apr 08:44:26 08:49:44 53° 58° (ENE) 08:55:00 437.095 MHz 1200 baud AX-25 AFSK
JAS-2 25 Apr 08:46:18 08:51:51 63° 286° (WNW) 08:58:04 435.800 - 435.900 CW/SSB, 435.910 FM
Saudisat 1A 25 Apr 09:05:42 09:09:15 24° 112° (ESE) 09:12:49 436.775 MHz
PCSat 25 Apr 09:28:43 09:34:04 61° 246° (WSW) 09:39:23 145.825 MHz
HO-68 25 Apr 09:35:44 09:42:01 32° 96° (E) 09:48:14 435.675 MHz FM
PANSAT 25 Apr 09:40:25 09:42:10 13° 194° (SSW) 09:43:55 not established
Oscar 11 25 Apr 10:09:42 10:12:57 20° 94° (E) 10:16:12 145.825 FM, Beacon 2401.500 USB
KITSAT 1 25 Apr 10:27:45 10:35:17 40° 50° (NE) 10:42:44 435.175 FM
Sapphire 25 Apr 10:28:54 10:32:43 20° 255° (WSW) 10:36:31 437.095 MHz 1200 baud AX-25 AFSK
RS-15 25 Apr 10:34:50 10:41:31 17° 348° (NNW) 10:48:11 29.354 - 29.394 USB, Beacon 29.352 USB
Saudisat 1A 25 Apr 10:44:35 10:48:40 35° 308° (NW) 10:52:47 436.775 MHz
HO-68 25 Apr 11:23:02 11:29:50 47° 293° (WNW) 11:36:37 435.675 MHz FM
Oscar 11 25 Apr 11:45:17 11:49:11 33° 289° (WNW) 11:53:05 145.825 FM, Beacon 2401.500 USB
FUNcube-1 25 Apr 11:54:11 11:58:32 83° 283° (WNW) 12:02:58 145.950 - 145.970 MHz USB
KITSAT 1 25 Apr 12:23:08 12:30:46 48° 249° (WSW) 12:38:22 435.175 FM
ISS 25 Apr 12:39:10 12:42:02 27° 133° (SE) 12:44:55 145.800 FM
RS-15 25 Apr 12:51:44 12:59:47 22° 26° (NNE) 13:07:53 29.354 - 29.394 USB, Beacon 29.352 USB
Oscar 19 25 Apr 13:04:17 13:08:21 24° 66° (ENE) 13:12:26 437.125 CW, 437.150 USB
AO-27 25 Apr 13:07:20 13:09:56 14° 61° (ENE) 13:12:31 436.795 MHz FM
SO-50 25 Apr 13:08:56 13:10:59 13° 108° (ESE) 13:13:02 436.795 FM
Oscar 16 25 Apr 13:13:15 13:17:44 31° 68° (ENE) 13:22:15 437.025 USB, Beacon 2401.1428
ITAMSAT 1 25 Apr 13:15:37 13:18:46 17° 63° (ENE) 13:21:55 435.822 SSB
